[[{"header":{"parameterUnit":"m.s-1","parameterCategory":1,"la1":30.2991,"la2":30.254,"lo1":-89.0895,"lo2":-89.0444,"dy":0.0017,"dx":0.0017,"nx":28,"ny":28,"refTime":"2023-08-29T21:00:00:Z","depth":0,"parameterNumber":2,"parameterNumberName":"U-component_of_WINDS"},"data":[0,0,0,0,0,0,0,0,0,0,0,0,0,0,0,0,0,0,0,0,0,0,0,0,0,0,0,0,0,0,0,0,0,0,0,0,0,0,0,0,0,0,0,0,0,0,0,0,0,0,0,0,0,0,0,0,0,0,1.8533,1.8533,0,1.85,1.85,1.8499,1.8449,1.8448,1.8447,1.8446,1.8412,1.8412,1.8412,0,0,0,0,0,0,0,0,0,0,0,0,0,1.8552,1.8552,1.8533,1.8533,1.8532,1.85,1.85,1.8499,1.8449,1.8448,1.8447,1.8446,1.8412,1.8412,1.8412,0,0,0,0,0,0,0,0,0,0,0,0,0,1.8534,1.8552,1.8533,1.8503,1.85,1.85,1.85,1.8499,1.8449,1.8448,1.8447,1.8446,1.8412,1.8412,1.8412,1.8438,0,0,1.8412,1.8412,0,0,0,0,0,0,0,0,1.8535,1.8534,1.8508,1.8505,1.8502,1.8477,1.8494,1.8479,1.845,1.8469,1.8446,1.8445,1.8435,1.8433,1.843,1.8437,1.8435,1.8412,1.8412,1.8412,1.8412,0,0,0,0,0,0,0,1.8537,1.8535,1.852,1.8508,1.8504,1.8492,1.8488,1.8491,1.846,1.8467,1.8463,1.846,1.8433,1.843,1.8428,1.8435,1.8412,1.8412,1.8412,1.8411,1.8462,1.8463,0,0,0,0,0,0,1.8542,1.8536,1.8521,1.8519,1.8516,1.8493,1.8488,1.8487,1.846,1.8454,1.8461,1.8458,1.8431,1.8429,1.8427,1.8456,1.8412,1.8411,1.8411,1.8461,1.8462,1.8464,0,0,0,0,0,0,1.8543,1.8542,1.8522,1.8527,1.8523,1.8494,1.8493,1.8487,1.8483,1.8455,1.8449,1.8464,1.843,1.8427,1.8436,1.8454,1.8411,1.8411,1.8459,1.8461,1.8463,1.8514,0,0,0,0,0,0,1.8544,1.8542,1.8552,1.8527,1.8523,1.8532,1.8494,1.8487,1.8484,1.8479,1.8456,1.8451,1.8428,1.8436,1.8436,1.8453,1.8411,1.8457,1.846,1.8462,1.8511,1.8518,1.8524,0,0,0,0,0,1.8545,1.8567,1.8552,1.8551,1.8534,1.8533,1.8531,1.8504,1.8485,1.8495,1.8477,1.8452,1.8453,1.8438,1.8437,1.8454,1.8456,1.8459,1.8462,1.8508,1.8517,1.8524,0,0,0,0,0,0,1.8594,1.8563,1.8547,1.8562,1.8551,1.8525,1.8535,1.8514,1.8508,1.8504,1.8471,1.8466,1.8479,1.8468,1.8452,1.8479,1.845,1.8454,1.8486,1.8494,1.85,1.8502,1.8411,0,0,0,0,0,1.8607,1.8608,1.8581,1.8597,1.8592,1.8565,1.8564,1.8544,1.8531,1.8526,1.8509,1.8497,1.8494,1.8493,1.849,1.8509,1.8504,1.8521,1.8528,1.8533,1.8536,1.8546,1.8553,1.8474,1.8474,1.8474,0,0,1.8633,1.8616,1.8619,1.8607,1.8596,1.8598,1.8561,1.8565,1.8567,1.8527,1.8534,1.8521,1.8506,1.852,1.8526,1.8511,1.8557,1.8537,1.8542,1.8542,1.855,1.8557,1.8564,1.8476,1.8476,1.8476,0,0,1.8681,1.8669,1.8681,1.8671,1.8655,1.8637,1.864,1.8618,1.8608,1.8615,1.8585,1.8586,1.8582,1.8573,1.8568,1.8614,1.8591,1.8614,1.8648,1.8658,1.8664,1.8669,1.8686,1.8692,1.8617,1.8617,1.8617,0,1.8715,1.8718,1.869,1.8696,1.8691,1.8656,1.8668,1.866,1.8644,1.8641,1.8625,1.862,1.8608,1.862,1.8631,1.8628,1.8631,1.8616,1.8666,1.8671,1.8675,1.8691,1.8697,1.862,1.862,1.8619,1.8619,0,1.8761,1.8763,1.8775,1.876,1.8757,1.8766,1.874,1.8741,1.8722,1.8706,1.8714,1.8697,1.869,1.8691,1.8673,1.8701,1.8692,1.8672,1.8642,1.8686,1.87,1.8706,1.8624,1.8623,1.8622,1.8621,0,0,1.8838,1.8809,1.8814,1.8807,1.8787,1.8789,1.8797,1.879,1.8791,1.8781,1.8787,1.8785,1.8766,1.876,1.874,1.8749,1.8788,1.8727,1.8726,1.8739,1.8818,1.8833,1.8841,1.8773,1.8774,1.8774,1.8819,0,1.8883,1.8894,1.887,1.8887,1.8889,1.8856,1.8863,1.8852,1.8837,1.8837,1.8821,1.882,1.8795,1.8791,1.8798,1.8781,1.8803,1.8778,1.8777,1.8778,1.8782,1.8848,1.8864,1.8907,1.8824,1.8825,1.8826,0,1.8935,1.8929,1.8947,1.8927,1.8927,1.8933,1.8925,1.8925,1.8912,1.8901,1.8895,1.8873,1.8879,1.8852,1.8861,1.8844,1.8843,1.8835,1.8836,1.8834,1.8804,1.8848,1.892,1.8926,1.8834,1.8833,1.8833,0,1.899,1.8986,1.8996,1.8991,1.8968,1.8974,1.8964,1.895,1.8948,1.8941,1.8939,1.8933,1.893,1.8926,1.8903,1.8885,1.8914,1.8885,1.8905,1.8906,1.8912,1.8912,1.8984,1.8912,1.8912,1.8912,1.8911,0,1.9042,1.9054,1.902,1.9027,1.9039,1.9012,1.9025,1.9013,1.9,1.9004,1.8975,1.8979,1.8948,1.8948,1.893,1.894,1.8939,1.893,1.8925,1.8932,1.8934,1.8931,1.8927,1.8913,1.8913,1.8913,1.8912,0,1.9105,1.9083,1.9091,1.9069,1.9064,1.9075,1.9056,1.9061,1.9045,1.9049,1.9049,1.9024,1.9023,1.9,1.8994,1.8982,1.8999,1.8989,1.9003,1.9,1.9021,1.902,1.9094,1.9102,1.9025,1.9026,1.9027,0,1.9139,1.9147,1.9127,1.9127,1.9119,1.912,1.9118,1.9091,1.909,1.9076,1.9083,1.908,1.9076,1.9076,1.9058,1.9053,1.9042,1.9069,1.9041,1.9049,1.9043,1.9042,1.9043,1.9074,1.9075,1.9076,1.9077,0,1.9202,1.9191,1.9188,1.9183,1.9181,1.9175,1.9168,1.917,1.914,1.9141,1.914,1.9137,1.9131,1.9129,1.9121,1.9111,1.909,1.9086,1.909,1.9098,1.9106,1.9102,1.9019,1.9084,1.9083,1.9083,1.9082,1.9082,1.9251,1.9257,1.9244,1.9243,1.9234,1.9228,1.9232,1.9217,1.9216,1.9209,1.9194,1.9196,1.9183,1.917,1.9163,1.9164,1.9151,1.9157,1.9158,1.916,1.9165,1.9106,1.9163,1.9162,1.9162,1.9162,1.9162,0,1.9313,1.9302,1.9302,1.9292,1.9291,1.9271,1.9262,1.9263,1.9265,1.9255,1.9252,1.9251,1.9249,1.9231,1.9226,1.9231,1.9221,1.9231,1.923,1.9228,1.9177,1.9173,1.9239,1.9239,1.9239,1.9239,1.9239,1.9239,1.9344,1.9354,1.9342,1.9347,1.9337,1.9339,1.9335,1.933,1.9322,1.9322,1.9321,1.9309,1.9296,1.929,1.9287,1.9282,1.9282,1.9295,1.9286,1.9239,1.9231,1.9224,1.9221,1.9295,1.9295,1.9337,1.9338,1.9338]},{"header":{"parameterUnit":"m.s-1","parameterCategory":1,"la1":30.2991,"la2":30.254,"lo1":-89.0895,"lo2":-89.0444,"dy":0.0017,"dx":0.0017,"nx":28,"ny":28,"refTime":"2023-08-29T21:00:00:Z","depth":0,"parameterNumber":3,"parameterNumberName":"V-component_of_WINDS"},"data":[0,0,0,0,0,0,0,0,0,0,0,0,0,0,0,0,0,0,0,0,0,0,0,0,0,0,0,0,0,0,0,0,0,0,0,0,0,0,0,0,0,0,0,0,0,0,0,0,0,0,0,0,0,0,0,0,0,0,-4.5683,-4.5685,0,-4.5853,-4.5855,-4.5857,-4.5864,-4.5862,-4.586,-4.5858,-4.6024,-4.603,-4.6036,0,0,0,0,0,0,0,0,0,0,0,0,0,-4.536,-4.5366,-4.5683,-4.5685,-4.5688,-4.5852,-4.5855,-4.5857,-4.5864,-4.5861,-4.5859,-4.5857,-4.6022,-4.6029,-4.6037,0,0,0,0,0,0,0,0,0,0,0,0,0,-4.5512,-4.5368,-4.5683,-4.5711,-4.5715,-4.5852,-4.5855,-4.5858,-4.5864,-4.5861,-4.5858,-4.5856,-4.6019,-4.6028,-4.6038,-4.6156,0,0,-4.6067,-4.6071,0,0,0,0,0,0,0,0,-4.5503,-4.5524,-4.5705,-4.5709,-4.5714,-4.5834,-4.5802,-4.5957,-4.5865,-4.5808,-4.5858,-4.5854,-4.5963,-4.5977,-4.6015,-4.6164,-4.6171,-4.6067,-4.6073,-4.6077,-4.608,0,0,0,0,0,0,0,-4.5493,-4.5517,-4.575,-4.5707,-4.5713,-4.5713,-4.5732,-4.5831,-4.5899,-4.5812,-4.5813,-4.5834,-4.5965,-4.6006,-4.6019,-4.6173,-4.6067,-4.6076,-4.6081,-4.6085,-4.6429,-4.6432,0,0,0,0,0,0,-4.5478,-4.5508,-4.5745,-4.5755,-4.56,-4.5722,-4.5742,-4.5799,-4.5899,-4.5911,-4.5836,-4.5833,-4.5991,-4.6008,-4.6024,-4.617,-4.6077,-4.6086,-4.6091,-4.6425,-4.6429,-4.6433,0,0,0,0,0,0,-4.5471,-4.5499,-4.5738,-4.5632,-4.5662,-4.573,-4.5794,-4.5803,-4.5845,-4.5917,-4.5928,-4.5866,-4.5989,-4.6011,-4.6124,-4.6176,-4.609,-4.6099,-4.6421,-4.6426,-4.6431,-4.6462,0,0,0,0,0,0,-4.5462,-4.5496,-4.5543,-4.5633,-4.5668,-4.5836,-4.5797,-4.5809,-4.5862,-4.586,-4.5947,-4.5959,-4.5989,-4.611,-4.6133,-4.6187,-4.6106,-4.6417,-4.6423,-4.643,-4.6457,-4.6468,-4.6477,0,0,0,0,0,-4.545,-4.5543,-4.5545,-4.5574,-4.5728,-4.5839,-4.5859,-4.5893,-4.5866,-4.5913,-4.5959,-4.5956,-4.6167,-4.6121,-4.6148,-4.6205,-4.6413,-4.6421,-4.6429,-4.6452,-4.6465,-4.6477,0,0,0,0,0,0,-4.5455,-4.5555,-4.5559,-4.5684,-4.5754,-4.584,-4.59,-4.5906,-4.5983,-4.5977,-4.6014,-4.6034,-4.6146,-4.6187,-4.6135,-4.6326,-4.6287,-4.63,-4.6295,-4.6308,-4.6318,-4.6306,-4.6114,0,0,0,0,0,-4.5471,-4.5555,-4.5637,-4.574,-4.5775,-4.5832,-4.5881,-4.5902,-4.5974,-4.6003,-4.6057,-4.6125,-4.6207,-4.626,-4.6339,-4.6463,-4.6482,-4.6515,-4.6526,-4.6534,-4.6545,-4.6614,-4.663,-4.6459,-4.6459,-4.6458,0,0,-4.5504,-4.5569,-4.5619,-4.5742,-4.5798,-4.5883,-4.5856,-4.5946,-4.6009,-4.6015,-4.6126,-4.6169,-4.6247,-4.6367,-4.6422,-4.6404,-4.6596,-4.6544,-4.6549,-4.6556,-4.6623,-4.664,-4.6654,-4.6464,-4.6463,-4.6462,0,0,-4.5607,-4.5666,-4.5758,-4.5816,-4.5902,-4.594,-4.5962,-4.6049,-4.6078,-4.6191,-4.6198,-4.6272,-4.6411,-4.6468,-4.6514,-4.6642,-4.6642,-4.6666,-4.6719,-4.6786,-4.68,-4.6812,-4.6858,-4.6873,-4.6677,-4.6677,-4.6677,0,-4.5637,-4.5767,-4.5804,-4.5896,-4.595,-4.5963,-4.6056,-4.6109,-4.6216,-4.6252,-4.6231,-4.6408,-4.6462,-4.6595,-4.6626,-4.6664,-4.6689,-4.6656,-4.6795,-4.6808,-4.682,-4.6864,-4.6881,-4.668,-4.6679,-4.6679,-4.6679,0,-4.5799,-4.5889,-4.5953,-4.6059,-4.612,-4.6212,-4.6262,-4.6319,-4.6335,-4.6374,-4.6488,-4.6554,-4.6647,-4.668,-4.6694,-4.6815,-4.6802,-4.6788,-4.6749,-4.6838,-4.688,-4.6897,-4.6683,-4.6682,-4.6681,-4.6681,0,0,-4.5909,-4.6037,-4.606,-4.6109,-4.6206,-4.6275,-4.6367,-4.6461,-4.6509,-4.6582,-4.666,-4.6779,-4.6768,-4.6821,-4.6842,-4.6901,-4.6999,-4.688,-4.6882,-4.69,-4.7136,-4.7146,-4.7165,-4.7,-4.7003,-4.7006,-4.7129,0,-4.6024,-4.6191,-4.6228,-4.6371,-4.6454,-4.6469,-4.6549,-4.6616,-4.6656,-4.6731,-4.6774,-4.6858,-4.6836,-4.6869,-4.6928,-4.6974,-4.7046,-4.6966,-4.7071,-4.7074,-4.7051,-4.7187,-4.7197,-4.731,-4.7146,-4.7149,-4.7151,0,-4.6179,-4.626,-4.6412,-4.65,-4.6536,-4.6608,-4.6698,-4.677,-4.6846,-4.6871,-4.6932,-4.6948,-4.7043,-4.7,-4.7131,-4.7076,-4.7121,-4.715,-4.7155,-4.7166,-4.7117,-4.7201,-4.7347,-4.7364,-4.7177,-4.7175,-4.7173,0,-4.6245,-4.6391,-4.6501,-4.6543,-4.6648,-4.6698,-4.6743,-4.6817,-4.6872,-4.6949,-4.6985,-4.7072,-4.7119,-4.7185,-4.7223,-4.7189,-4.7352,-4.7312,-4.7374,-4.7373,-4.7407,-4.7404,-4.7563,-4.7436,-4.7436,-4.7435,-4.7435,0,-4.6369,-4.6461,-4.6533,-4.66,-4.6704,-4.6746,-4.6847,-4.6892,-4.6958,-4.7034,-4.705,-4.712,-4.7167,-4.7244,-4.7274,-4.7378,-4.7399,-4.7421,-4.7427,-4.7419,-4.7417,-4.7449,-4.7442,-4.744,-4.7439,-4.7438,-4.7437,0,-4.6459,-4.6511,-4.6632,-4.6723,-4.6748,-4.682,-4.6897,-4.6963,-4.7003,-4.7099,-4.7124,-4.7187,-4.7278,-4.7323,-4.7435,-4.7456,-4.7573,-4.7575,-4.7548,-4.7551,-4.761,-4.7604,-4.7795,-4.7822,-4.7678,-4.7679,-4.768,0,-4.6535,-4.6607,-4.6707,-4.676,-4.6808,-4.6893,-4.695,-4.6993,-4.7051,-4.7145,-4.7199,-4.7292,-4.7368,-4.7513,-4.7567,-4.7653,-4.7657,-4.7718,-4.767,-4.766,-4.7658,-4.7654,-4.7661,-4.7726,-4.7728,-4.7729,-4.773,0,-4.6664,-4.6687,-4.6769,-4.6861,-4.6929,-4.7003,-4.7075,-4.7117,-4.7172,-4.7236,-4.7332,-4.7391,-4.7508,-4.7599,-4.769,-4.7734,-4.7741,-4.7745,-4.7764,-4.7756,-4.7738,-4.7749,-4.7572,-4.774,-4.7739,-4.7738,-4.7738,-4.7737,-4.675,-4.6815,-4.6896,-4.6987,-4.7047,-4.7115,-4.7182,-4.7233,-4.7313,-4.7413,-4.7434,-4.7534,-4.7609,-4.7732,-4.778,-4.7858,-4.7845,-4.7872,-4.7879,-4.7885,-4.7888,-4.7726,-4.7875,-4.7875,-4.7874,-4.7874,-4.7874,0,-4.688,-4.6934,-4.7018,-4.712,-4.7192,-4.7195,-4.7276,-4.7335,-4.7425,-4.7496,-4.7572,-4.7681,-4.777,-4.7833,-4.7923,-4.7974,-4.7979,-4.7996,-4.7992,-4.8002,-4.7895,-4.787,-4.799,-4.799,-4.799,-4.799,-4.799,-4.799,-4.6956,-4.7067,-4.71,-4.724,-4.7292,-4.7394,-4.7439,-4.7502,-4.7559,-4.7681,-4.7757,-4.7798,-4.7866,-4.7961,-4.8043,-4.8059,-4.8091,-4.8108,-4.8124,-4.8022,-4.801,-4.7998,-4.7975,-4.8115,-4.8115,-4.8225,-4.8226,-4.8227]}]]